This demonstration page uses our WeatherBlox Daily Observations layout. Learn more.

Left ArrowRight Arrow

44.8408, -93.29828

Hourly Observations for September 7, 2022

Temp ( °F °C ) Dew Point ( °F °C ) Humidity (%) Winds ( mph kmh ) Pressure ( in mb ) Visibility ( mi km ) Precip ( " mm )
12:53 am 00:53 Mostly Cloudy 74 23.3 65 18.3 74 74 SW 3 6 30.14 1021 10 16 0.00 0.00
2:53 am 02:53 Mostly Cloudy 72 22.2 65 18.3 79 79 Calm 30.14 1021 10 16 0.00 0.00
3:53 am 03:53 Mostly Cloudy 71 21.7 65 18.3 81 81 SW 5 7 30.15 1021 10 16 0.00 0.00
4:53 am 04:53 Mostly Clear 70 21.1 65 18.3 84 84 SSW 5 7 30.16 1021 10 16 0.00 0.00
5:53 am 05:53 Mostly Clear 69 20.6 65 18.3 87 87 Calm 30.16 1021 10 16 0.00 0.00
6:53 am 06:53 Mostly Sunny 68 20 64 17.8 87 87 Calm 30.17 1022 9 14 0.00 0.00
7:53 am 07:53 Mostly Sunny 70 21.1 65 18.3 84 84 WSW 3 6 30.18 1022 10 16 0.00 0.00
8:53 am 08:53 Partly Cloudy 72 22.2 66 18.9 82 82 Calm 30.19 1023 10 16 0.00 0.00
9:53 am 09:53 Sunny 75 23.9 67 19.4 76 76 Calm 30.19 1022 10 16 0.00 0.00
10:53 am 10:53 Sunny 79 26.1 67 19.4 67 67 Calm 30.19 1022 10 16 0.00 0.00
11:53 am 11:53 Mostly Sunny 82 27.8 68 20 63 63 SE 5 7 30.17 1022 10 16 0.00 0.00
12:53 pm 12:53 Mostly Sunny 84 28.9 65 18.3 53 53 S 9 15 30.15 1021 10 16 0.00 0.00
1:53 pm 13:53 Partly Cloudy 85 29.4 64 17.8 50 50 WSW 6 9 30.14 1021 10 16 0.00 0.00
2:53 pm 14:53 Partly Cloudy 85 29.4 64 17.8 50 50 SSE 7 11 30.11 1020 10 16 0.00 0.00
3:53 pm 15:53 Partly Cloudy 86 30 63 17.2 46 46 SSE 6 9 30.08 1019 10 16 0.00 0.00
4:53 pm 16:53 Partly Cloudy 86 30 64 17.8 48 48 SSE 8 13 30.06 1018 10 16 0.00 0.00
5:53 pm 17:53 Mostly Sunny 85 29.4 65 18.3 51 51 S 6 9 30.04 1017 10 16 0.00 0.00
6:53 pm 18:53 Mostly Sunny 84 28.9 65 18.3 53 53 S 6 9 30.03 1017 10 16 0.00 0.00
7:53 pm 19:53 Mostly Clear 82 27.8 66 18.9 58 58 SSW 9 15 30.03 1017 10 16 0.00 0.00
8:53 pm 20:53 Mostly Clear 80 26.7 66 18.9 62 62 S 7 11 30.03 1017 10 16 0.00 0.00
9:53 pm 21:53 Mostly Clear 79 26.1 67 19.4 67 67 SSW 10 17 30.02 1017 10 16 0.00 0.00
10:53 pm 22:53 Clear 77 25 66 18.9 69 69 SSW 3 6 30.02 1017 10 16 0.00 0.00
11:53 pm 23:53 Clear 75 23.9 66 18.9 74 74 S 6 9 30.01 1016 10 16 0.00 0.00

Powered by AerisWeather